Wind_Speed
7 7 8 7 7 6 5 4 3 3 3 4 5 5 6 7 8 9 10 10 11 12 13 13 12 12 12 14 14 14 14 15 16 17 17 18 17 17 17 16 16 15 14 13 13 13 12 12 11
8 8 7 7 7 6 6 5 4 4 4 5 6 8 8 9 10 11 12 12 13 14 14 14 14 14 14 14 16 17 17 17 18 18 19 18 17 17 18 18 18 17 16 15 14 13 13 12 12
8 8 8 8 7 7 7 6 6 6 7 8 9 10 11 11 12 13 13 15 15 15 15 14 15 15 16 16 18 19 19 19 19 20 20 19 19 19 20 20 19 19 18 17 16 15 14 13 13
9 9 9 9 9 8 7 8 8 8 9 10 11 12 12 13 13 14 15 16 16 16 16 17 17 17 17 18 20 20 21 22 22 21 21 21 21 21 21 21 20 20 20 19 18 16 15 14 13
10 9 10 10 10 9 8 8 9 10 11 11 12 13 14 14 15 15 16 16 17 17 18 19 19 19 20 21 22 23 24 24 25 24 23 24 23 23 23 23 22 21 20 20 19 18 16 15 14
11 10 10 11 11 10 10 10 10 10 11 11 13 14 15 16 16 16 16 17 17 18 18 19 20 21 22 23 24 26 26 27 28 27 26 26 25 25 25 25 25 23 22 21 19 19 18 17 16
12 11 11 11 12 12 12 12 11 11 12 12 13 15 16 16 16 16 17 17 17 17 17 18 20 21 22 23 24 26 27 29 30 30 29 29 27 27 27 27 27 25 24 23 21 20 20 19 17
13 13 12 12 12 12 12 13 13 13 14 14 15 15 16 16 16 16 16 16 16 16 17 18 19 20 21 22 23 24 26 28 29 30 31 31 31 30 29 28 27 27 26 25 24 22 21 21 19
14 14 14 13 13 13 13 14 13 14 15 15 14 14 15 15 15 15 15 15 15 15 15 16 17 18 19 20 21 23 24 26 27 28 29 30 31 32 32 31 29 28 28 28 27 25 23 22 21
15 14 15 14 13 13 13 13 13 14 15 14 13 14 14 14 13 13 13 13 13 13 14 15 15 16 17 19 20 21 22 23 25 26 27 28 30 31 32 32 31 30 30 29 29 27 26 25 23
15 16 15 14 13 13 13 13 14 15 14 13 13 13 13 12 11 11 12 12 13 13 13 14 14 15 16 17 18 20 21 22 22 24 25 26 27 29 31 32 31 31 31 30 28 28 27 27 25
16 16 15 14 13 12 12 13 13 13 12 12 12 12 12 11 10 10 10 11 11 11 12 13 13 14 15 16 17 18 19 20 21 22 23 24 25 26 28 30 31 31 31 30 29 29 28 27 26
17 16 14 13 12 12 12 12 12 12 12 12 12 11 10 9 8 8 9 9 10 11 11 12 13 13 14 15 16 17 18 18 19 20 20 20 21 23 24 26 28 30 31 31 30 28 28 28 27
16 15 14 13 13 13 13 13 12 12 12 11 11 10 8 7 7 7 8 9 10 10 11 12 13 14 14 15 15 15 15 16 17 18 19 19 19 20 22 23 25 26 28 29 30 30 28 28 27
16 15 14 13 13 13 13 13 12 12 11 10 9 7 6 6 6 7 8 9 9 10 11 12 13 14 14 14 15 15 15 15 15 16 17 18 18 19 19 21 22 24 25 28 29 29 30 29 28
15 14 13 12 12 13 12 12 11 10 9 8 7 5 5 5 5 6 7 8 9 10 11 12 13 13 14 14 14 14 14 14 14 14 14 15 16 17 17 19 20 22 24 26 27 29 30 30 29
14 13 12 12 12 12 11 11 11 9 8 7 5 5 5 5 4 5 6 8 9 10 11 12 13 13 14 14 14 15 15 14 14 13 12 13 14 14 15 16 18 20 21 24 26 28 30 30 30
13 12 12 12 11 10 10 10 10 9 7 5 4 4 4 4 4 5 6 7 8 9 11 12 14 14 14 15 15 15 15 15 14 13 12 12 12 13 14 14 15 17 19 21 23 26 28 29 30
13 12 12 12 10 9 9 10 9 7 6 5 4 4 4 4 4 4 5 6 8 9 11 13 14 15 15 15 15 16 16 15 14 13 12 11 11 11 12 13 14 16 17 19 21 24 25 27 28
13 12 12 11 11 10 9 9 8 6 5 5 4 4 3 3 3 4 5 6 8 10 12 13 14 15 15 16 16 16 16 16 15 14 13 12 11 10 10 11 12 14 15 17 19 22 24 25 27
13 12 12 11 10 9 8 8 7 6 5 5 4 3 3 3 3 4 5 6 8 10 12 13 14 15 15 16 16 16 16 16 16 15 14 12 11 10 10 10 10 12 13 14 17 19 21 23 25
12 12 11 10 9 8 8 7 7 6 5 5 4 3 3 3 3 4 5 6 8 10 12 13 14 15 15 16 16 17 17 17 16 16 14 12 11 10 9 8 8 9 10 12 14 16 18 21 23
11 11 10 9 8 8 8 7 7 6 5 5 4 4 3 3 3 4 5 6 7 10 11 13 14 15 15 16 16 17 17 17 16 16 15 13 12 10 8 7 6 6 7 8 10 13 16 19 21
10 10 9 9 9 9 9 8 6 6 6 5 5 4 4 3 3 3 4 6 7 9 11 12 13 14 16 16 16 17 17 17 16 16 15 14 13 11 9 8 6 5 5 5 7 10 12 15 18
9 9 9 9 9 10 9 8 7 6 6 6 6 5 4 4 3 3 4 5 7 8 10 11 13 14 16 16 17 17 17 17 16 15 15 15 14 12 10 9 7 5 3 3 5 7 9 12 15
9 9 9 10 10 10 9 8 7 7 6 6 6 5 5 4 4 3 4 5 6 8 9 10 12 14 15 16 16 17 17 17 17 16 15 15 15 14 12 10 8 6 4 2 3 4 6 8 12
8 9 9 10 9 8 8 8 8 8 7 7 6 6 5 4 4 3 3 4 6 7 9 10 11 13 15 15 16 16 17 17 17 17 16 15 14 14 13 11 9 7 6 3 2 3 5 6 8
8 9 9 9 8 8 8 9 9 9 9 8 7 6 5 5 4 3 3 4 5 7 8 9 11 12 14 15 15 16 16 17 16 17 17 16 15 14 13 12 10 9 7 5 3 2 3 5 6
9 9 9 9 9 8 8 9 10 10 10 9 8 7 7 5 4 4 3 4 5 6 7 8 10 12 13 14 15 15 15 16 16 16 16 17 16 15 13 12 11 9 8 6 5 3 2 3 4
10 10 10 10 9 9 9 9 11 11 10 10 10 9 8 7 5 4 4 4 5 6 7 8 9 11 12 13 14 15 15 15 16 16 16 16 16 16 14 13 12 11 9 8 7 5 4 2 3
Wind_Direction
316 324 333 334 336 337 333 318 290 292 288 300 300 299 299 294 292 290 294 295 292 292 290 289 281 281 277 269 260 257 255 253 250 245 240 238 236 235 233 233 233 232 231 230 229 232 237 240 242
299 313 324 330 329 326 321 316 310 310 302 304 303 300 297 294 294 291 290 292 291 290 289 287 280 278 276 270 268 265 264 259 257 253 247 243 244 242 238 237 236 235 234 231 231 233 237 240 243
288 297 308 316 315 308 305 308 309 309 305 299 301 299 296 294 293 291 288 289 289 288 288 285 282 279 277 273 272 270 267 262 261 259 254 249 247 244 244 242 240 238 236 235 234 234 236 240 243
280 286 295 305 304 302 298 298 295 300 305 304 304 301 298 295 294 292 290 289 288 286 285 284 280 279 276 274 272 270 269 265 265 262 257 256 254 251 247 246 245 241 239 239 236 235 236 239 242
273 279 287 294 297 297 295 295 296 298 302 304 305 303 300 298 297 296 293 292 290 287 285 283 279 275 274 273 270 267 266 265 263 261 258 259 260 257 253 251 248 246 244 242 239 237 237 238 239
268 273 278 285 290 294 294 298 296 297 303 306 306 304 303 302 302 300 298 296 292 289 288 285 281 278 274 273 270 268 267 264 263 261 259 259 260 259 256 255 253 249 247 244 242 239 237 237 237
263 267 272 277 284 290 294 299 302 302 302 304 307 307 307 305 303 301 299 298 296 294 290 287 284 282 278 275 273 270 269 266 266 264 262 260 259 259 258 257 255 250 248 245 243 239 238 237 236
259 263 267 273 281 288 294 299 301 303 304 306 306 307 308 308 305 303 302 301 300 299 295 291 287 284 282 278 275 273 272 270 267 265 264 263 261 259 256 255 257 254 251 246 242 239 237 238 237
256 259 263 267 276 285 292 299 301 302 305 307 307 307 309 309 308 308 306 305 304 303 301 298 295 291 288 285 281 277 275 273 271 268 266 264 261 259 257 257 257 255 253 248 244 241 238 236 238
252 256 261 267 275 288 293 298 303 305 306 307 307 308 309 310 312 312 310 310 311 311 309 307 304 301 297 292 288 284 280 276 273 271 269 266 262 259 257 257 256 254 251 249 245 243 241 237 238
249 253 260 267 276 288 296 298 302 304 306 305 306 309 311 314 316 317 316 316 316 315 314 312 310 308 305 301 296 291 286 281 276 273 271 268 264 260 258 256 254 252 250 247 245 244 242 238 236
245 251 259 269 278 288 297 300 303 305 303 304 307 310 313 316 319 322 322 322 323 322 321 319 317 315 312 308 304 298 292 285 280 278 274 271 266 262 259 255 253 250 248 247 243 243 241 238 236
244 249 258 270 279 286 296 298 303 307 307 306 309 311 313 315 321 326 330 332 332 331 329 327 325 321 318 316 312 305 299 292 285 281 279 274 270 264 259 255 253 249 247 245 243 241 239 239 237
242 249 255 264 278 286 290 294 298 302 305 304 305 310 315 317 323 330 334 336 336 335 335 334 332 328 326 324 322 317 310 304 296 289 283 277 272 267 261 257 253 250 246 245 244 243 240 239 237
238 244 253 264 275 284 288 290 295 298 299 302 304 310 311 316 321 330 336 339 341 341 341 340 339 336 333 331 330 328 322 315 308 298 291 284 277 271 262 256 253 250 247 243 241 241 240 239 237
234 240 248 260 272 281 283 286 289 294 296 298 301 304 304 314 319 330 337 344 348 348 347 347 346 343 340 339 340 339 334 327 319 309 300 290 284 278 267 259 254 250 246 244 241 239 238 237 236
228 236 247 259 269 276 279 281 284 290 290 289 291 294 300 309 319 329 338 345 349 351 353 353 352 349 346 345 343 343 341 337 330 322 312 300 291 284 275 265 258 251 247 244 240 238 237 236 235
222 233 244 258 264 269 280 282 282 287 282 278 279 287 296 304 317 329 338 345 349 351 353 354 353 352 349 347 345 344 342 340 336 329 321 310 299 288 278 270 263 254 248 245 239 237 235 234 232
219 229 243 257 263 267 276 280 283 283 276 271 270 277 289 298 313 329 340 347 349 351 351 351 352 352 352 349 347 346 345 344 341 335 328 321 308 294 282 274 266 258 251 246 240 236 233 232 230
217 228 242 254 261 266 275 280 278 281 278 272 267 270 280 297 313 331 342 346 349 350 351 351 353 355 355 353 353 351 349 348 346 343 338 331 319 305 294 281 271 262 255 248 242 236 231 230 229
217 228 241 253 262 268 278 281 279 277 273 265 258 262 276 295 310 328 340 346 349 352 354 355 356 358 358 358 357 356 354 354 352 350 348 342 333 322 308 296 278 267 259 253 244 237 232 230 229
218 230 243 255 262 275 281 280 278 275 269 258 251 256 273 286 298 320 335 344 351 355 356 358 359 1 1 0 359 360 359 359 359 357 355 351 345 339 328 312 291 273 263 255 244 236 233 230 229
220 235 248 258 264 275 281 279 273 270 262 252 246 253 267 274 286 309 328 341 350 355 358 360 2 3 4 3 3 2 2 1 2 2 3 1 358 353 346 333 310 288 270 258 243 236 234 232 230
225 240 251 263 271 277 275 274 267 263 252 246 245 253 263 269 281 301 322 337 347 353 358 2 4 6 7 6 6 5 5 5 5 6 8 8 7 4 360 353 340 314 284 261 244 236 234 231 230
230 245 259 271 278 278 269 267 260 252 242 240 246 255 260 266 279 294 319 335 345 352 358 1 6 7 7 7 7 8 9 9 9 10 12 13 13 13 10 7 3 353 319 267 244 239 235 232 229
239 248 255 265 274 274 265 261 253 245 236 238 245 252 257 263 270 286 313 331 342 350 355 359 4 7 8 8 9 10 11 12 14 14 13 16 18 17 16 13 11 9 356 318 258 240 235 233 231
243 252 261 267 271 269 260 253 248 242 234 235 241 246 251 254 260 280 307 328 341 347 351 356 1 6 8 9 11 12 13 15 16 16 16 16 17 18 19 17 15 11 8 355 305 253 244 241 237
251 258 262 265 269 267 255 250 247 243 240 236 237 239 243 244 252 273 299 324 337 344 348 354 0 4 7 10 12 13 15 16 17 18 19 19 17 17 19 20 18 16 13 9 350 305 268 243 237
255 260 260 262 262 261 255 249 246 244 241 239 237 237 239 239 247 264 290 318 331 339 346 353 359 3 6 9 11 13 14 15 17 18 19 20 21 20 19 20 20 20 18 15 9 355 304 263 247
260 260 261 264 263 259 257 253 247 245 241 240 238 237 236 239 246 260 280 305 320 331 340 349 356 2 6 9 12 13 14 14 16 17 17 18 19 21 22 20 21 19 19 18 17 14 5 331 283
Height
5888 5887 5887 5886 5886 5886 5885 5884 5884 5884 5883 5883 5882 5882 5881 5881 5881 5882 5878 5876 5875 5873 5872 5872 5871 5870 5870 5869 5869 5868 5868 5868 5868 5868 5868 5869 5869 5869 5870 5870 5871 5872 5872 5873 5874 5874 5875 5876 5876
5888 5887 5887 5887 5886 5885 5885 5884 5883 5882 5882 5881 5880 5880 5879 5878 5877 5876 5875 5873 5872 5871 5870 5869 5868 5868 5867 5867 5866 5866 5865 5865 5865 5865 5865 5865 5866 5866 5866 5867 5868 5869 5869 5870 5871 5872 5872 5873 5874
5887 5887 5887 5886 5885 5884 5883 5882 5881 5880 5880 5879 5879 5878 5877 5876 5875 5874 5872 5871 5870 5869 5867 5866 5865 5865 5864 5864 5863 5862 5862 5862 5861 5861 5861 5861 5862 5862 5863 5863 5864 5865 5866 5867 5868 5869 5870 5870 5871
5886 5886 5886 5885 5884 5883 5882 5881 5879 5879 5878 5877 5876 5875 5874 5873 5872 5870 5869 5868 5867 5866 5864 5863 5863 5862 5861 5860 5859 5858 5858 5857 5857 5857 5857 5857 5857 5858 5858 5859 5860 5861 5862 5863 5864 5865 5867 5867 5868
5884 5884 5884 5883 5882 5881 5880 5878 5877 5877 5876 5875 5874 5873 5871 5870 5868 5867 5866 5865 5863 5862 5861 5860 5859 5858 5857 5856 5855 5854 5853 5853 5852 5852 5852 5852 5853 5854 5854 5855 5855 5856 5858 5859 5860 5862 5863 5864 5865
5883 5883 5883 5881 5880 5879 5878 5877 5876 5875 5874 5873 5872 5870 5869 5867 5865 5864 5862 5861 5860 5859 5857 5856 5854 5853 5852 5851 5850 5849 5848 5848 5847 5847 5847 5847 5847 5848 5849 5850 5851 5852 5853 5855 5856 5858 5859 5860 5862
5881 5881 5880 5879 5878 5877 5877 5875 5874 5873 5872 5871 5869 5868 5866 5864 5862 5861 5859 5858 5856 5855 5853 5851 5850 5849 5847 5846 5845 5844 5843 5842 5841 5841 5841 5841 5841 5842 5843 5845 5846 5847 5848 5850 5851 5853 5855 5856 5858
5877 5878 5877 5877 5876 5875 5874 5873 5872 5871 5869 5868 5867 5865 5863 5862 5860 5858 5856 5855 5853 5851 5849 5848 5846 5844 5842 5841 5840 5838 5837 5836 5835 5835 5835 5835 5836 5836 5837 5839 5840 5842 5843 5844 5846 5848 5850 5852 5854
5874 5876 5875 5874 5873 5873 5872 5871 5870 5868 5867 5865 5864 5862 5861 5859 5857 5855 5854 5852 5850 5848 5846 5844 5842 5840 5838 5836 5835 5833 5832 5830 5829 5829 5828 5829 5829 5830 5831 5832 5834 5836 5837 5839 5841 5843 5845 5847 5849
5871 5872 5871 5871 5871 5870 5869 5868 5867 5866 5864 5863 5861 5860 5858 5856 5855 5853 5851 5849 5847 5845 5843 5840 5838 5836 5834 5832 5829 5828 5826 5825 5823 5823 5822 5822 5822 5823 5824 5826 5828 5830 5831 5833 5835 5837 5840 5842 5844
5867 5868 5868 5868 5868 5868 5867 5866 5865 5863 5862 5860 5859 5857 5855 5854 5852 5851 5849 5846 5844 5842 5840 5837 5835 5833 5830 5828 5825 5823 5821 5819 5818 5817 5816 5816 5816 5816 5817 5819 5821 5823 5825 5827 5829 5832 5834 5837 5839
5864 5864 5865 5865 5865 5865 5864 5863 5862 5861 5859 5858 5856 5855 5853 5852 5850 5849 5847 5844 5842 5840 5838 5835 5832 5830 5827 5824 5821 5819 5816 5814 5813 5811 5810 5809 5809 5810 5811 5812 5814 5816 5818 5820 5823 5826 5828 5831 5834
5860 5861 5862 5863 5863 5862 5862 5861 5860 5858 5857 5855 5854 5853 5851 5850 5849 5847 5845 5843 5840 5838 5836 5833 5830 5827 5824 5821 5818 5815 5812 5810 5808 5806 5804 5804 5803 5803 5804 5805 5807 5809 5811 5814 5817 5819 5822 5825 5828
5857 5858 5859 5860 5860 5860 5859 5858 5857 5856 5855 5853 5852 5851 5849 5848 5847 5846 5844 5842 5839 5837 5834 5831 5828 5825 5821 5818 5815 5812 5809 5806 5803 5801 5799 5798 5798 5798 5798 5799 5800 5802 5804 5807 5810 5813 5816 5819 5822
5854 5856 5857 5857 5857 5857 5857 5856 5855 5854 5853 5851 5850 5849 5848 5847 5846 5844 5843 5840 5838 5835 5832 5829 5826 5822 5819 5816 5812 5809 5805 5802 5799 5797 5795 5794 5793 5793 5793 5793 5794 5796 5798 5800 5803 5807 5810 5813 5816
5851 5853 5854 5855 5855 5854 5856 5854 5853 5852 5851 5850 5849 5848 5847 5846 5845 5843 5841 5839 5836 5834 5831 5828 5824 5821 5817 5814 5810 5806 5803 5799 5796 5793 5791 5789 5788 5788 5788 5788 5789 5790 5792 5794 5797 5800 5804 5807 5810
5848 5850 5851 5852 5852 5852 5852 5851 5851 5850 5849 5848 5847 5846 5846 5845 5844 5842 5840 5838 5835 5833 5830 5826 5823 5819 5816 5812 5808 5805 5801 5797 5793 5790 5788 5786 5785 5784 5783 5783 5784 5785 5787 5789 5791 5794 5797 5800 5804
5846 5848 5849 5849 5850 5850 5850 5849 5848 5848 5847 5846 5846 5845 5844 5843 5842 5841 5839 5837 5835 5832 5829 5825 5822 5818 5814 5810 5807 5803 5799 5795 5791 5788 5785 5783 5781 5780 5780 5779 5780 5780 5782 5783 5785 5788 5791 5794 5798
5843 5845 5846 5847 5847 5848 5848 5847 5846 5846 5845 5845 5844 5843 5843 5842 5841 5840 5838 5836 5834 5831 5828 5824 5821 5817 5813 5809 5805 5801 5797 5793 5790 5786 5783 5781 5778 5777 5776 5775 5775 5776 5777 5778 5780 5782 5785 5788 5792
5841 5843 5844 5844 5845 5845 5845 5845 5845 5844 5843 5843 5843 5842 5842 5841 5840 5839 5837 5835 5833 5830 5827 5823 5820 5816 5812 5808 5804 5799 5796 5792 5788 5784 5781 5778 5776 5774 5772 5772 5771 5771 5772 5773 5775 5777 5780 5783 5787
5839 5840 5841 5842 5843 5843 5844 5844 5843 5843 5842 5841 5841 5841 5840 5840 5839 5838 5836 5834 5832 5829 5826 5822 5819 5815 5811 5807 5803 5798 5795 5791 5787 5783 5780 5776 5773 5771 5769 5768 5768 5767 5768 5769 5770 5772 5775 5778 5781
5837 5838 5839 5840 5841 5842 5842 5842 5842 5841 5840 5840 5840 5840 5839 5839 5838 5837 5835 5833 5831 5828 5825 5822 5818 5814 5810 5806 5802 5798 5794 5790 5786 5782 5778 5775 5772 5769 5767 5766 5765 5764 5764 5765 5766 5768 5770 5773 5776
5835 5836 5838 5839 5839 5840 5840 5840 5841 5839 5839 5839 5839 5838 5838 5837 5837 5836 5834 5832 5830 5827 5825 5821 5818 5814 5810 5806 5802 5798 5793 5789 5785 5781 5778 5774 5771 5768 5766 5764 5763 5762 5761 5762 5763 5764 5767 5769 5772
5834 5835 5836 5837 5838 5839 5838 5839 5839 5838 5838 5838 5838 5837 5837 5836 5835 5834 5833 5831 5829 5827 5824 5821 5817 5814 5810 5806 5802 5798 5793 5789 5785 5781 5777 5774 5770 5767 5765 5763 5761 5760 5759 5760 5760 5761 5763 5765 5768
5833 5835 5836 5836 5837 5837 5836 5836 5837 5836 5836 5836 5836 5836 5835 5835 5834 5833 5832 5830 5829 5826 5824 5821 5817 5814 5810 5806 5802 5798 5793 5789 5785 5781 5777 5774 5770 5767 5765 5762 5760 5759 5758 5758 5758 5759 5760 5762 5764
5831 5833 5835 5836 5835 5835 5834 5834 5835 5834 5834 5834 5834 5834 5834 5833 5833 5832 5831 5829 5828 5825 5823 5820 5817 5814 5810 5806 5802 5798 5794 5790 5786 5782 5778 5774 5771 5768 5765 5762 5760 5759 5758 5757 5757 5758 5758 5759 5761
5830 5831 5832 5833 5832 5833 5833 5833 5833 5832 5832 5832 5832 5832 5832 5832 5831 5830 5829 5828 5827 5825 5822 5820 5817 5814 5810 5806 5802 5798 5794 5790 5786 5782 5779 5775 5772 5769 5766 5763 5761 5759 5758 5757 5756 5756 5757 5758 5759
5829 5829 5830 5830 5830 5831 5831 5831 5831 5830 5830 5831 5831 5831 5831 5830 5830 5829 5828 5827 5826 5824 5822 5819 5816 5813 5810 5806 5803 5799 5795 5791 5787 5783 5780 5776 5773 5769 5767 5764 5762 5760 5758 5757 5756 5756 5756 5756 5757
5827 5828 5827 5828 5828 5829 5829 5831 5828 5828 5828 5829 5829 5829 5829 5829 5829 5828 5827 5826 5824 5823 5821 5819 5816 5813 5810 5807 5803 5799 5796 5792 5788 5785 5781 5777 5774 5770 5768 5765 5763 5761 5759 5757 5756 5756 5755 5755 5756
5825 5825 5825 5826 5826 5825 5826 5830 5826 5826 5826 5826 5827 5827 5827 5827 5827 5826 5826 5825 5823 5822 5820 5818 5816 5813 5810 5807 5803 5800 5796 5793 5789 5785 5782 5778 5775 5772 5769 5766 5764 5761 5759 5758 5757 5756 5755 5755 5755